| time (UTC) | temp F | wind direction | speed MPH | gust MPH | rain 1hr in | rain 24hr in | rain mn in | humidity % | barometer mb |
| 20260906111145 | 65 | 72 | 1.0 | 2.0 | 0.00 | 0.00 | 0.00 | 99 | 1017.7 |
| 20260906110641 | 65 | 46 | 0.0 | 2.0 | 0.00 | 0.00 | 0.00 | 99 | 1017.5 |
| 20260906110136 | 65 | 85 | 2.0 | 2.0 | 0.00 | 0.00 | 0.00 | 99 | 1017.4 |
| 20260906105629 | 65 | 26 | 0.0 | 2.0 | 0.00 | 0.00 | 0.00 | 99 | 1017.4 |
| 20260906105126 | 65 | 22 | 0.0 | 2.0 | 0.00 | 0.00 | 0.00 | 99 | 1017.4 |
| 20260906104625 | 65 | 17 | 2.0 | 2.0 | 0.00 | 0.00 | 0.00 | 99 | 1017.3 |
| 20260906104119 | 65 | 14 | 0.0 | 2.0 | 0.00 | 0.00 | 0.00 | 99 | 1017.3 |
| 20260906103617 | 64 | 359 | 1.0 | 3.0 | 0.00 | 0.00 | 0.00 | 99 | 1017.4 |
| 20260906103114 | 64 | 35 | 2.0 | 2.0 | 0.00 | 0.00 | 0.00 | 99 | 1017.4 |
| 20260906102613 | 64 | 54 | 1.0 | 2.0 | 0.00 | 0.00 | 0.00 | 99 | 1017.3 |
| 20260906102108 | 64 | 38 | 1.0 | 2.0 | 0.00 | 0.00 | 0.00 | 99 | 1017.2 |
| 20260906101609 | 64 | 51 | 2.0 | 2.0 | 0.00 | 0.00 | 0.00 | 99 | 1017.0 |
| 20260906101108 | 64 | 56 | 1.0 | 2.0 | 0.00 | 0.00 | 0.00 | 99 | 1016.9 |
| 20260906100604 | 64 | 51 | 0.0 | 2.0 | 0.00 | 0.00 | 0.00 | 99 | 1017.2 |
| 20260906100059 | 64 | 49 | 0.0 | 2.0 | 0.00 | 0.00 | 0.00 | 99 | 1017.3 |
| 20260906095559 | 64 | 40 | 0.0 | 1.0 | 0.00 | 0.00 | 0.00 | 99 | 1017.2 |
| 20260906095054 | 65 | 60 | 1.0 | 1.0 | 0.00 | 0.00 | 0.00 | 99 | 1017.2 |
| 20260906094553 | 65 | 37 | 1.0 | 1.0 | 0.00 | 0.00 | 0.00 | 99 | 1017.1 |
| 20260906094049 | 65 | 55 | 0.0 | 2.0 | 0.00 | 0.00 | 0.00 | 99 | 1017.1 |
| 20260906093544 | 65 | 25 | 0.0 | 1.0 | 0.00 | 0.00 | 0.00 | 99 | 1016.9 |
| 20260906093040 | 65 | 46 | 0.0 | 2.0 | 0.00 | 0.00 | 0.00 | 99 | 1016.9 |
| 20260906092540 | 65 | 50 | 1.0 | 2.0 | 0.00 | 0.00 | 0.00 | 99 | 1017.1 |
| 20260906092035 | 65 | 34 | 1.0 | 1.0 | 0.00 | 0.00 | 0.00 | 99 | 1016.9 |
| 20260906091531 | 65 | 19 | 2.0 | 2.0 | 0.00 | 0.00 | 0.00 | 99 | 1016.8 |
| 20260906091028 | 65 | 35 | 2.0 | 2.0 | 0.00 | 0.00 | 0.00 | 98 | 1017.0 |
| 20260906090527 | 65 | 37 | 0.0 | 1.0 | 0.00 | 0.00 | 0.00 | 98 | 1017.0 |
| 20260906090023 | 65 | 32 | 1.0 | 2.0 | 0.00 | 0.00 | 0.00 | 98 | 1017.0 |
| 20260906085521 | 65 | 31 | 2.0 | 3.0 | 0.00 | 0.00 | 0.00 | 98 | 1016.8 |
| 20260906085021 | 65 | 51 | 1.0 | 2.0 | 0.00 | 0.00 | 0.00 | 98 | 1016.6 |
| 20260906084521 | 65 | 39 | 2.0 | 2.0 | 0.00 | 0.00 | 0.00 | 98 | 1016.8 |
| 20260906084020 | 65 | 41 | 1.0 | 2.0 | 0.00 | 0.00 | 0.00 | 98 | 1017.0 |
| 20260906083516 | 65 | 32 | 2.0 | 2.0 | 0.00 | 0.00 | 0.00 | 98 | 1016.9 |
| 20260906083015 | 65 | 51 | 0.0 | 1.0 | 0.00 | 0.00 | 0.00 | 98 | 1016.8 |
| 20260906082510 | 65 | 61 | 1.0 | 2.0 | 0.00 | 0.00 | 0.00 | 98 | 1016.7 |
| 20260906082006 | 65 | 48 | 0.0 | 1.0 | 0.00 | 0.00 | 0.00 | 98 | 1016.7 |
| 20260906081502 | 65 | 40 | 0.0 | 2.0 | 0.00 | 0.00 | 0.00 | 98 | 1016.9 |
| 20260906080957 | 65 | 37 | 0.0 | 1.0 | 0.00 | 0.00 | 0.00 | 98 | 1016.9 |
| 20260906080454 | 65 | 53 | 0.0 | 1.0 | 0.00 | 0.00 | 0.00 | 98 | 1016.8 |
| 20260906075954 | 66 | 69 | 1.0 | 1.0 | 0.00 | 0.00 | 0.00 | 97 | 1016.8 |
| 20260906075449 | 66 | 53 | 0.0 | 1.0 | 0.00 | 0.00 | 0.00 | 97 | 1016.7 |
| 20260906074945 | 66 | 35 | 1.0 | 2.0 | 0.00 | 0.00 | 0.00 | 97 | 1016.9 |
| 20260906074444 | 66 | 54 | 1.0 | 2.0 | 0.00 | 0.00 | 0.00 | 97 | 1016.9 |
| 20260906073943 | 66 | 41 | 1.0 | 2.0 | 0.00 | 0.00 | 0.00 | 97 | 1016.8 |
| 20260906073438 | 66 | 44 | 1.0 | 2.0 | 0.00 | 0.00 | 0.00 | 97 | 1016.7 |
| 20260906072934 | 66 | 40 | 1.0 | 1.0 | 0.00 | 0.00 | 0.00 | 97 | 1016.8 |
| 20260906072429 | 66 | 55 | 1.0 | 2.0 | 0.00 | 0.00 | 0.00 | 97 | 1016.9 |
| 20260906071925 | 67 | 48 | 1.0 | 2.0 | 0.00 | 0.00 | 0.00 | 97 | 1016.9 |
| 20260906071421 | 67 | 50 | 1.0 | 2.0 | 0.00 | 0.00 | 0.00 | 96 | 1016.9 |
| 20260906070917 | 67 | 53 | 0.0 | 1.0 | 0.00 | 0.00 | 0.00 | 96 | 1016.8 |
| 20260906070413 | 67 | 67 | 0.0 | 1.0 | 0.00 | 0.00 | 0.00 | 96 | 1017.0 |
| 20260906065908 | 67 | 43 | 0.0 | 1.0 | 0.00 | 0.00 | 0.00 | 96 | 1017.1 |
| 20260906065402 | 67 | 37 | 2.0 | 2.0 | 0.00 | 0.00 | 0.00 | 96 | 1017.0 |
| 20260906064858 | 68 | 34 | 1.0 | 2.0 | 0.00 | 0.00 | 0.00 | 96 | 1016.8 |
| 20260906064355 | 68 | 30 | 2.0 | 2.0 | 0.00 | 0.00 | 0.00 | 96 | 1016.8 |
| 20260906063854 | 68 | 10 | 2.0 | 2.0 | 0.00 | 0.00 | 0.00 | 96 | 1016.9 |
| 20260906063349 | 68 | 14 | 1.0 | 2.0 | 0.00 | 0.00 | 0.00 | 96 | 1016.9 |
| 20260906062844 | 68 | 35 | 2.0 | 3.0 | 0.00 | 0.00 | 0.00 | 95 | 1017.1 |
| 20260906062344 | 68 | 11 | 1.0 | 2.0 | 0.00 | 0.00 | 0.00 | 95 | 1017.2 |
| 20260906061839 | 69 | 17 | 2.0 | 2.0 | 0.00 | 0.00 | 0.00 | 95 | 1016.9 |
| 20260906061336 | 69 | 346 | 3.0 | 4.0 | 0.00 | 0.00 | 0.00 | 95 | 1016.7 |
| 20260906060836 | 69 | 23 | 4.0 | 4.0 | 0.00 | 0.00 | 0.00 | 94 | 1017.0 |
| 20260906060334 | 69 | 17 | 2.0 | 3.0 | 0.00 | 0.00 | 0.00 | 94 | 1017.0 |
| 20260906055830 | 69 | 16 | 2.0 | 3.0 | 0.00 | 0.00 | 0.00 | 94 | 1017.0 |
| 20260906055325 | 69 | 8 | 2.0 | 3.0 | 0.00 | 0.00 | 0.00 | 94 | 1017.0 |
| 20260906054820 | 69 | 20 | 2.0 | 3.0 | 0.00 | 0.00 | 0.00 | 94 | 1017.2 |
| 20260906054315 | 69 | 26 | 2.0 | 2.0 | 0.00 | 0.00 | 0.00 | 94 | 1017.1 |
| 20260906053812 | 69 | 11 | 3.0 | 3.0 | 0.00 | 0.00 | 0.00 | 94 | 1017.1 |
| 20260906053307 | 69 | 30 | 2.0 | 2.0 | 0.00 | 0.00 | 0.00 | 94 | 1017.1 |
| 20260906052802 | 69 | 26 | 1.0 | 2.0 | 0.00 | 0.00 | 0.00 | 93 | 1016.9 |
| 20260906052258 | 69 | 31 | 2.0 | 3.0 | 0.00 | 0.00 | 0.00 | 94 | 1016.9 |
| 20260906051755 | 69 | 19 | 2.0 | 3.0 | 0.00 | 0.00 | 0.00 | 94 | 1016.6 |
| 20260906051254 | 69 | 27 | 2.0 | 2.0 | 0.00 | 0.00 | 0.00 | 93 | 1016.6 |
| 20260906050750 | 69 | 23 | 2.0 | 4.0 | 0.00 | 0.00 | 0.00 | 93 | 1016.7 |
| 20260906050245 | 69 | 23 | 2.0 | 3.0 | 0.00 | 0.00 | 0.00 | 93 | 1016.7 |
| 20260906045744 | 69 | 28 | 1.0 | 2.0 | 0.00 | 0.00 | 0.00 | 93 | 1016.7 |
| 20260906045239 | 69 | 10 | 2.0 | 2.0 | 0.00 | 0.00 | 0.00 | 94 | 1016.6 |
| 20260906044734 | 69 | 9 | 1.0 | 2.0 | 0.00 | 0.00 | 0.00 | 94 | 1016.6 |
| 20260906044229 | 69 | 5 | 1.0 | 3.0 | 0.00 | 0.00 | 0.00 | 94 | 1016.5 |
| 20260906043726 | 69 | 0 | 1.0 | 3.0 | 0.00 | 0.00 | 0.00 | 94 | 1016.4 |
| 20260906043221 | 69 | 41 | 2.0 | 3.0 | 0.00 | 0.00 | 0.00 | 94 | 1016.2 |
| 20260906042720 | 69 | 35 | 2.0 | 3.0 | 0.00 | 0.00 | 0.00 | 94 | 1016.4 |
| 20260906042219 | 69 | 349 | 2.0 | 2.0 | 0.00 | 0.00 | 0.00 | 93 | 1016.1 |
| 20260906041715 | 69 | 20 | 3.0 | 4.0 | 0.00 | 0.00 | 0.00 | 93 | 1016.4 |
| 20260906041210 | 69 | 17 | 2.0 | 2.0 | 0.00 | 0.00 | 0.00 | 94 | 1016.0 |
| 20260906040706 | 69 | 29 | 3.0 | 4.0 | 0.00 | 0.00 | 0.00 | 93 | 1015.9 |
| 20260906040201 | 69 | 5 | 2.0 | 4.0 | 0.00 | 0.00 | 0.00 | 93 | 1015.8 |
| 20260906035657 | 69 | 56 | 2.0 | 4.0 | 0.00 | 0.00 | 0.00 | 93 | 1015.8 |
| 20260906035152 | 69 | 17 | 2.0 | 4.0 | 0.00 | 0.00 | 0.00 | 93 | 1015.9 |
| 20260906034647 | 69 | 24 | 3.0 | 4.0 | 0.00 | 0.00 | 0.00 | 93 | 1015.7 |
| 20260906034141 | 69 | 27 | 4.0 | 4.0 | 0.00 | 0.00 | 0.00 | 93 | 1016.0 |
| 20260906033637 | 69 | 16 | 1.0 | 2.0 | 0.00 | 0.00 | 0.00 | 93 | 1015.7 |
| 20260906033131 | 69 | 24 | 2.0 | 3.0 | 0.00 | 0.00 | 0.00 | 92 | 1015.9 |
| 20260906032628 | 69 | 9 | 2.0 | 3.0 | 0.00 | 0.00 | 0.00 | 92 | 1015.7 |
| 20260906032128 | 69 | 74 | 2.0 | 3.0 | 0.00 | 0.00 | 0.00 | 92 | 1015.6 |
| 20260906031623 | 69 | 114 | 0.0 | 3.0 | 0.00 | 0.00 | 0.00 | 92 | 1015.8 |
| 20260906031119 | 69 | 8 | 2.0 | 3.0 | 0.00 | 0.00 | 0.00 | 92 | 1015.8 |
| 20260906030618 | 69 | 37 | 2.0 | 3.0 | 0.00 | 0.00 | 0.00 | 92 | 1015.7 |
| 20260906030113 | 69 | 42 | 2.0 | 4.0 | 0.00 | 0.00 | 0.00 | 92 | 1015.7 |
| 20260906025613 | 70 | 43 | 2.0 | 3.0 | 0.00 | 0.00 | 0.00 | 92 | 1015.8 |
| 20260906025111 | 70 | 53 | 0.0 | 2.0 | 0.00 | 0.00 | 0.00 | 92 | 1016.0 |
| 20260906024606 | 70 | 50 | 1.0 | 2.0 | 0.00 | 0.00 | 0.00 | 91 | 1015.7 |
| 20260906024102 | 70 | 70 | 1.0 | 3.0 | 0.00 | 0.00 | 0.00 | 91 | 1015.8 |
| 20260906023557 | 70 | 81 | 0.0 | 4.0 | 0.00 | 0.00 | 0.00 | 91 | 1015.7 |
| 20260906023051 | 70 | 67 | 1.0 | 4.0 | 0.00 | 0.00 | 0.00 | 90 | 1015.6 |
| 20260906022547 | 70 | 22 | 3.0 | 4.0 | 0.00 | 0.00 | 0.00 | 90 | 1015.4 |
| 20260906022043 | 70 | 0 | 2.0 | 3.0 | 0.00 | 0.00 | 0.00 | 90 | 1015.5 |
| 20260906021538 | 71 | 20 | 2.0 | 3.0 | 0.00 | 0.00 | 0.00 | 90 | 1015.6 |
| 20260906021037 | 71 | 63 | 0.0 | 3.0 | 0.00 | 0.00 | 0.00 | 90 | 1015.4 |
| 20260906020536 | 71 | 89 | 2.0 | 2.0 | 0.00 | 0.00 | 0.00 | 89 | 1015.6 |
| 20260906020036 | 71 | 26 | 2.0 | 2.0 | 0.00 | 0.00 | 0.00 | 89 | 1015.5 |
| 20260906015535 | 71 | 22 | 2.0 | 2.0 | 0.00 | 0.00 | 0.00 | 89 | 1015.7 |
| 20260906015035 | 71 | 354 | 1.0 | 4.0 | 0.00 | 0.00 | 0.00 | 89 | 1015.9 |
| 20260906014530 | 71 | 42 | 1.0 | 2.0 | 0.00 | 0.00 | 0.00 | 89 | 1015.9 |
| 20260906014026 | 71 | 18 | 2.0 | 4.0 | 0.00 | 0.00 | 0.00 | 90 | 1015.8 |
| 20260906013521 | 71 | 13 | 4.0 | 4.0 | 0.00 | 0.00 | 0.00 | 90 | 1015.7 |
| 20260906013017 | 71 | 350 | 3.0 | 4.0 | 0.00 | 0.00 | 0.00 | 90 | 1015.9 |
| 20260906012512 | 71 | 4 | 2.0 | 4.0 | 0.00 | 0.00 | 0.00 | 90 | 1015.5 |
| 20260906012011 | 71 | 356 | 2.0 | 3.0 | 0.00 | 0.00 | 0.00 | 90 | 1015.7 |
| 20260906011508 | 71 | 17 | 1.0 | 4.0 | 0.00 | 0.00 | 0.00 | 89 | 1016.1 |
| 20260906011008 | 71 | 338 | 2.0 | 4.0 | 0.00 | 0.00 | 0.00 | 89 | 1015.7 |
| 20260906010503 | 71 | 1 | 5.0 | 6.0 | 0.00 | 0.00 | 0.00 | 89 | 1015.9 |
| 20260906005959 | 71 | 38 | 3.0 | 4.0 | 0.00 | 0.00 | 0.00 | 89 | 1015.6 |
| 20260906005458 | 71 | 6 | 2.0 | 4.0 | 0.00 | 0.00 | 0.00 | 89 | 1015.6 |
| 20260906004957 | 71 | 347 | 4.0 | 4.0 | 0.00 | 0.00 | 0.00 | 89 | 1015.7 |
| 20260906004457 | 71 | 28 | 4.0 | 4.0 | 0.00 | 0.00 | 0.00 | 89 | 1015.4 |
| 20260906003952 | 71 | 354 | 2.0 | 2.0 | 0.00 | 0.00 | 0.00 | 89 | 1015.5 |
| 20260906003447 | 71 | 37 | 4.0 | 4.0 | 0.00 | 0.00 | 0.00 | 89 | 1015.4 |
| 20260906002937 | 71 | 341 | 6.0 | 7.0 | 0.00 | 0.00 | 0.00 | 89 | 1015.4 |
| 20260906002436 | 71 | 69 | 4.0 | 5.0 | 0.00 | 0.00 | 0.00 | 88 | 1015.4 |
| 20260906001931 | 71 | 317 | 2.0 | 5.0 | 0.00 | 0.00 | 0.00 | 88 | 1015.2 |
| 20260906001427 | 71 | 29 | 4.0 | 4.0 | 0.00 | 0.00 | 0.00 | 89 | 1015.3 |
| 20260906000917 | 71 | 15 | 2.0 | 3.0 | 0.00 | 0.00 | 0.00 | 89 | 1015.3 |
| 20260906000412 | 71 | 1 | 3.0 | 4.0 | 0.00 | 0.00 | 0.00 | 89 | 1015.3 |
| 20260905235907 | 71 | 9 | 2.0 | 6.0 | 0.00 | 0.00 | 0.00 | 89 | 1015.4 |
| 20260905235407 | 71 | 308 | 0.0 | 5.0 | 0.00 | 0.00 | 0.00 | 89 | 1015.2 |
| 20260905234902 | 71 | 351 | 3.0 | 7.0 | 0.00 | 0.00 | 0.00 | 89 | 1015.1 |
| 20260905234357 | 71 | 118 | 2.0 | 4.0 | 0.00 | 0.00 | 0.00 | 88 | 1015.2 |
| 20260905233852 | 72 | 275 | 2.0 | 9.0 | 0.00 | 0.00 | 0.00 | 88 | 1015.3 |
| 20260905233347 | 72 | 351 | 4.0 | 5.0 | 0.00 | 0.00 | 0.00 | 88 | 1015.1 |
| 20260905232846 | 72 | 344 | 3.0 | 5.0 | 0.00 | 0.00 | 0.00 | 88 | 1015.3 |
| 20260905232343 | 73 | 345 | 3.0 | 7.0 | 0.00 | 0.00 | 0.00 | 87 | 1015.0 |
| 20260905231838 | 73 | 351 | 2.0 | 4.0 | 0.00 | 0.00 | 0.00 | 86 | 1015.4 |
| 20260905231338 | 74 | 341 | 3.0 | 6.0 | 0.00 | 0.00 | 0.00 | 85 | 1014.9 |
| 20260905230835 | 74 | 337 | 3.0 | 5.0 | 0.00 | 0.00 | 0.00 | 85 | 1014.9 |
| 20260905230333 | 75 | 338 | 3.0 | 6.0 | 0.00 | 0.00 | 0.00 | 84 | 1014.9 |
| 20260905225832 | 75 | 14 | 3.0 | 5.0 | 0.00 | 0.00 | 0.00 | 83 | 1014.9 |
| 20260905225328 | 76 | 7 | 4.0 | 6.0 | 0.00 | 0.00 | 0.00 | 82 | 1014.8 |
| 20260905224827 | 76 | 352 | 1.0 | 4.0 | 0.00 | 0.00 | 0.00 | 83 | 1015.0 |
| 20260905224323 | 76 | 353 | 2.0 | 3.0 | 0.00 | 0.00 | 0.00 | 83 | 1014.8 |
| 20260905223818 | 76 | 352 | 3.0 | 4.0 | 0.00 | 0.00 | 0.00 | 83 | 1014.4 |
| 20260905223316 | 77 | 9 | 2.0 | 5.0 | 0.00 | 0.00 | 0.00 | 82 | 1014.5 |
| 20260905222811 | 77 | 64 | 2.0 | 8.0 | 0.00 | 0.00 | 0.00 | 80 | 1014.6 |
| 20260905222309 | 78 | 358 | 4.0 | 7.0 | 0.00 | 0.00 | 0.00 | 80 | 1014.4 |
| 20260905221805 | 78 | 6 | 3.0 | 4.0 | 0.00 | 0.00 | 0.00 | 80 | 1014.6 |
| 20260905221302 | 78 | 353 | 2.0 | 4.0 | 0.00 | 0.00 | 0.00 | 81 | 1014.6 |
| 20260905220757 | 77 | 18 | 4.0 | 7.0 | 0.00 | 0.00 | 0.00 | 81 | 1014.6 |
| 20260905220254 | 78 | 335 | 4.0 | 5.0 | 0.00 | 0.00 | 0.00 | 80 | 1014.5 |
| 20260905215753 | 79 | 353 | 4.0 | 6.0 | 0.00 | 0.00 | 0.00 | 79 | 1014.6 |
| 20260905215249 | 79 | 354 | 3.0 | 3.0 | 0.00 | 0.00 | 0.00 | 80 | 1014.6 |
| 20260905214744 | 79 | 41 | 1.0 | 4.0 | 0.00 | 0.00 | 0.00 | 81 | 1014.2 |
| 20260905214240 | 79 | 34 | 0.0 | 5.0 | 0.00 | 0.00 | 0.00 | 80 | 1014.2 |
| 20260905213735 | 80 | 318 | 3.0 | 4.0 | 0.00 | 0.00 | 0.00 | 80 | 1014.5 |
| 20260905213231 | 80 | 97 | 4.0 | 5.0 | 0.00 | 0.00 | 0.00 | 79 | 1014.2 |
| 20260905212726 | 79 | 15 | 3.0 | 4.0 | 0.00 | 0.00 | 0.00 | 79 | 1014.1 |
| 20260905212225 | 79 | 346 | 2.0 | 4.0 | 0.00 | 0.00 | 0.00 | 79 | 1014.2 |
| 20260905211720 | 79 | 343 | 2.0 | 3.0 | 0.00 | 0.00 | 0.00 | 77 | 1014.2 |
| 20260905211215 | 80 | 353 | 3.0 | 4.0 | 0.00 | 0.00 | 0.00 | 75 | 1014.1 |
| 20260905210712 | 80 | 349 | 4.0 | 5.0 | 0.00 | 0.00 | 0.00 | 75 | 1013.9 |
| 20260905210211 | 79 | 356 | 2.0 | 4.0 | 0.00 | 0.00 | 0.00 | 77 | 1014.0 |
| 20260905205711 | 79 | 357 | 2.0 | 2.0 | 0.00 | 0.00 | 0.00 | 78 | 1013.9 |
| 20260905205210 | 80 | 19 | 2.0 | 3.0 | 0.00 | 0.00 | 0.00 | 77 | 1014.0 |
| 20260905204710 | 80 | 12 | 2.0 | 3.0 | 0.00 | 0.00 | 0.00 | 76 | 1014.2 |
| 20260905204206 | 79 | 3 | 3.0 | 4.0 | 0.00 | 0.00 | 0.00 | 79 | 1014.4 |
| 20260905203700 | 79 | 341 | 3.0 | 6.0 | 0.00 | 0.00 | 0.00 | 77 | 1014.2 |
| 20260905203156 | 80 | 334 | 3.0 | 5.0 | 0.00 | 0.00 | 0.00 | 76 | 1014.3 |
| 20260905202651 | 79 | 34 | 2.0 | 3.0 | 0.00 | 0.00 | 0.00 | 78 | 1014.2 |
| 20260905202146 | 79 | 347 | 3.0 | 4.0 | 0.00 | 0.00 | 0.00 | 78 | 1014.2 |
| 20260905201642 | 80 | 345 | 3.0 | 6.0 | 0.00 | 0.00 | 0.00 | 78 | 1014.2 |
| 20260905201141 | 80 | 339 | 1.0 | 5.0 | 0.00 | 0.00 | 0.00 | 77 | 1014.2 |
| 20260905200637 | 80 | 325 | 2.0 | 4.0 | 0.00 | 0.00 | 0.00 | 79 | 1014.1 |
| 20260905200132 | 79 | 29 | 4.0 | 5.0 | 0.00 | 0.00 | 0.00 | 79 | 1014.2 |
| 20260905195625 | 79 | 21 | 3.0 | 4.0 | 0.00 | 0.00 | 0.00 | 80 | 1014.3 |
| 20260905195121 | 78 | 358 | 4.0 | 4.0 | 0.00 | 0.00 | 0.00 | 80 | 1014.4 |
| 20260905194621 | 79 | 332 | 4.0 | 6.0 | 0.00 | 0.00 | 0.00 | 80 | 1014.6 |
| 20260905194120 | 79 | 337 | 4.0 | 7.0 | 0.00 | 0.00 | 0.00 | 79 | 1014.4 |
| 20260905193615 | 79 | 336 | 0.0 | 4.0 | 0.00 | 0.00 | 0.00 | 80 | 1014.6 |
| 20260905193110 | 79 | 11 | 2.0 | 4.0 | 0.00 | 0.00 | 0.00 | 81 | 1014.7 |
| 20260905192606 | 78 | 103 | 0.0 | 4.0 | 0.00 | 0.00 | 0.00 | 83 | 1014.6 |
| 20260905192102 | 77 | 337 | 0.0 | 5.0 | 0.00 | 0.00 | 0.00 | 84 | 1014.7 |
| 20260905191600 | 77 | 67 | 2.0 | 6.0 | 0.00 | 0.00 | 0.00 | 84 | 1014.5 |
| 20260905191059 | 76 | 298 | 4.0 | 5.0 | 0.00 | 0.00 | 0.00 | 85 | 1014.8 |
| 20260905190557 | 76 | 341 | 2.0 | 4.0 | 0.00 | 0.00 | 0.00 | 86 | 1014.9 |
| 20260905190057 | 76 | 358 | 0.0 | 2.0 | 0.00 | 0.00 | 0.00 | 87 | 1014.8 |
| 20260905185556 | 76 | 329 | 2.0 | 4.0 | 0.00 | 0.00 | 0.00 | 87 | 1015.1 |
| 20260905185055 | 76 | 355 | 4.0 | 5.0 | 0.00 | 0.00 | 0.00 | 87 | 1014.9 |
| 20260905184550 | 76 | 346 | 1.0 | 4.0 | 0.00 | 0.00 | 0.00 | 86 | 1014.9 |
| 20260905184049 | 76 | 351 | 2.0 | 5.0 | 0.00 | 0.00 | 0.00 | 86 | 1014.9 |
| 20260905183549 | 76 | 347 | 2.0 | 4.0 | 0.00 | 0.00 | 0.00 | 85 | 1015.1 |
| 20260905183044 | 76 | 329 | 3.0 | 3.0 | 0.00 | 0.00 | 0.00 | 87 | 1014.8 |
| 20260905182538 | 76 | 356 | 2.0 | 4.0 | 0.00 | 0.00 | 0.00 | 86 | 1015.0 |
| 20260905182033 | 76 | 335 | 2.0 | 3.0 | 0.00 | 0.00 | 0.00 | 86 | 1015.0 |
| 20260905181527 | 76 | 26 | 2.0 | 2.0 | 0.00 | 0.00 | 0.00 | 87 | 1015.1 |
| 20260905181027 | 76 | 317 | 2.0 | 3.0 | 0.00 | 0.00 | 0.00 | 86 | 1015.0 |
| 20260905180521 | 76 | 355 | 4.0 | 4.0 | 0.00 | 0.00 | 0.00 | 87 | 1015.0 |
| 20260905180017 | 76 | 343 | 2.0 | 4.0 | 0.00 | 0.00 | 0.00 | 87 | 1014.9 |
| 20260905175516 | 76 | 7 | 4.0 | 5.0 | 0.00 | 0.00 | 0.00 | 87 | 1014.6 |
| 20260905175012 | 75 | 27 | 2.0 | 3.0 | 0.00 | 0.00 | 0.00 | 88 | 1014.9 |
| 20260905174507 | 75 | 283 | 1.0 | 4.0 | 0.00 | 0.00 | 0.00 | 88 | 1014.9 |
| 20260905174003 | 75 | 315 | 3.0 | 4.0 | 0.00 | 0.00 | 0.00 | 88 | 1014.8 |
| 20260905173459 | 75 | 18 | 2.0 | 3.0 | 0.00 | 0.00 | 0.00 | 88 | 1014.8 |
| 20260905172954 | 75 | 326 | 3.0 | 5.0 | 0.00 | 0.00 | 0.00 | 88 | 1014.9 |
| 20260905172452 | 75 | 322 | 3.0 | 5.0 | 0.00 | 0.00 | 0.00 | 88 | 1014.8 |
| 20260905171948 | 75 | 332 | 2.0 | 5.0 | 0.00 | 0.00 | 0.00 | 89 | 1014.8 |
| 20260905171444 | 75 | 354 | 2.0 | 4.0 | 0.00 | 0.00 | 0.00 | 89 | 1014.7 |
| 20260905170940 | 75 | 10 | 6.0 | 6.0 | 0.00 | 0.00 | 0.00 | 89 | 1014.8 |
| 20260905170436 | 75 | 295 | 4.0 | 5.0 | 0.00 | 0.00 | 0.00 | 89 | 1015.1 |
| 20260905165936 | 75 | 338 | 4.0 | 4.0 | 0.00 | 0.00 | 0.00 | 89 | 1015.1 |
| 20260905165431 | 75 | 335 | 4.0 | 5.0 | 0.00 | 0.00 | 0.00 | 88 | 1015.1 |
| 20260905164926 | 76 | 5 | 3.0 | 5.0 | 0.00 | 0.00 | 0.00 | 88 | 1014.9 |
| 20260905164426 | 76 | 326 | 2.0 | 4.0 | 0.00 | 0.00 | 0.00 | 88 | 1015.2 |
| 20260905163921 | 76 | 15 | 2.0 | 3.0 | 0.00 | 0.00 | 0.00 | 89 | 1015.0 |
| 20260905163417 | 76 | 348 | 2.0 | 7.0 | 0.00 | 0.00 | 0.00 | 88 | 1015.0 |
| 20260905162913 | 76 | 330 | 2.0 | 5.0 | 0.00 | 0.00 | 0.00 | 88 | 1014.8 |
| 20260905162408 | 76 | 345 | 3.0 | 4.0 | 0.00 | 0.00 | 0.00 | 89 | 1015.0 |
| 20260905161903 | 76 | 355 | 3.0 | 4.0 | 0.00 | 0.00 | 0.00 | 88 | 1015.0 |
| 20260905161401 | 76 | 336 | 3.0 | 4.0 | 0.00 | 0.00 | 0.00 | 88 | 1015.1 |
| 20260905160900 | 76 | 347 | 2.0 | 3.0 | 0.00 | 0.00 | 0.00 | 88 | 1015.1 |
| 20260905160354 | 76 | 336 | 3.0 | 3.0 | 0.00 | 0.00 | 0.00 | 89 | 1015.0 |
| 20260905155849 | 76 | 5 | 2.0 | 4.0 | 0.00 | 0.00 | 0.00 | 89 | 1014.8 |
| 20260905155348 | 76 | 312 | 3.0 | 5.0 | 0.00 | 0.00 | 0.00 | 89 | 1014.9 |
| 20260905154847 | 76 | 335 | 2.0 | 4.0 | 0.00 | 0.00 | 0.00 | 89 | 1014.5 |
| 20260905154343 | 76 | 316 | 4.0 | 8.0 | 0.00 | 0.00 | 0.00 | 88 | 1014.8 |
| 20260905153838 | 77 | 343 | 1.0 | 5.0 | 0.00 | 0.00 | 0.00 | 87 | 1014.7 |
| 20260905153335 | 77 | 315 | 1.0 | 3.0 | 0.00 | 0.00 | 0.00 | 88 | 1014.5 |
| 20260905152834 | 77 | 328 | 2.0 | 4.0 | 0.00 | 0.00 | 0.00 | 89 | 1014.5 |
| 20260905152334 | 77 | 326 | 3.0 | 5.0 | 0.00 | 0.00 | 0.00 | 89 | 1014.3 |
| 20260905151829 | 77 | 4 | 3.0 | 4.0 | 0.00 | 0.00 | 0.00 | 89 | 1014.4 |
| 20260905151325 | 77 | 332 | 2.0 | 4.0 | 0.00 | 0.00 | 0.00 | 89 | 1014.2 |
| 20260905150824 | 77 | 346 | 2.0 | 5.0 | 0.00 | 0.00 | 0.00 | 90 | 1014.4 |
| 20260905150319 | 77 | 324 | 2.0 | 5.0 | 0.00 | 0.00 | 0.00 | 89 | 1014.3 |
| 20260905145817 | 77 | 344 | 3.0 | 8.0 | 0.00 | 0.00 | 0.00 | 89 | 1014.2 |
| 20260905145316 | 76 | 19 | 2.0 | 5.0 | 0.00 | 0.00 | 0.00 | 92 | 1014.4 |
| 20260905144815 | 75 | 0 | 2.0 | 3.0 | 0.00 | 0.00 | 0.00 | 95 | 1014.3 |
| 20260905144311 | 74 | 5 | 2.0 | 4.0 | 0.00 | 0.00 | 0.00 | 96 | 1014.4 |
| 20260905143809 | 74 | 359 | 2.0 | 4.0 | 0.00 | 0.00 | 0.00 | 96 | 1014.4 |
| 20260905143304 | 74 | 8 | 2.0 | 4.0 | 0.00 | 0.00 | 0.00 | 97 | 1014.1 |
| 20260905142803 | 73 | 7 | 3.0 | 4.0 | 0.00 | 0.00 | 0.00 | 98 | 1014.1 |
| 20260905142257 | 73 | 340 | 2.0 | 3.0 | 0.00 | 0.00 | 0.00 | 98 | 1014.3 |
| 20260905141753 | 73 | 337 | 2.0 | 4.0 | 0.00 | 0.00 | 0.00 | 99 | 1014.2 |
| 20260905141249 | 73 | 352 | 3.0 | 5.0 | 0.00 | 0.00 | 0.00 | 99 | 1014.3 |
| 20260905140745 | 73 | 326 | 3.0 | 6.0 | 0.00 | 0.00 | 0.00 | 99 | 1014.1 |
| 20260905140244 | 73 | 326 | 2.0 | 3.0 | 0.00 | 0.00 | 0.00 | 99 | 1014.1 |
| 20260905135743 | 73 | 324 | 3.0 | 6.0 | 0.00 | 0.00 | 0.00 | 99 | 1014.1 |
| 20260905135240 | 73 | 322 | 3.0 | 4.0 | 0.00 | 0.00 | 0.00 | 99 | 1013.9 |
| 20260905134739 | 73 | 12 | 2.0 | 3.0 | 0.00 | 0.00 | 0.00 | 99 | 1014.3 |
| 20260905134239 | 72 | 6 | 2.0 | 3.0 | 0.00 | 0.00 | 0.00 | 99 | 1014.0 |
| 20260905133733 | 73 | 343 | 3.0 | 4.0 | 0.00 | 0.00 | 0.00 | 99 | 1014.0 |
| 20260905133228 | 72 | 345 | 2.0 | 2.0 | 0.00 | 0.00 | 0.00 | 99 | 1013.9 |
| 20260905132727 | 72 | 339 | 2.0 | 2.0 | 0.00 | 0.00 | 0.00 | 99 | 1014.0 |
| 20260905132223 | 72 | 22 | 2.0 | 3.0 | 0.00 | 0.00 | 0.00 | 99 | 1014.1 |
| 20260905131718 | 72 | 336 | 2.0 | 3.0 | 0.00 | 0.00 | 0.00 | 99 | 1014.5 |
| 20260905131214 | 72 | 329 | 2.0 | 3.0 | 0.00 | 0.00 | 0.00 | 99 | 1014.6 |
| 20260905130708 | 72 | 320 | 2.0 | 2.0 | 0.00 | 0.00 | 0.00 | 99 | 1014.1 |
| 20260905130207 | 71 | 7 | 1.0 | 3.0 | 0.00 | 0.00 | 0.00 | 99 | 1013.8 |
| 20260905125702 | 71 | 13 | 2.0 | 2.0 | 0.00 | 0.00 | 0.00 | 99 | 1014.0 |
| 20260905125157 | 71 | 347 | 2.0 | 3.0 | 0.00 | 0.00 | 0.00 | 99 | 1013.9 |
| 20260905124654 | 71 | 341 | 2.0 | 3.0 | 0.00 | 0.00 | 0.00 | 99 | 1014.0 |
| 20260905124149 | 71 | 351 | 2.0 | 5.0 | 0.00 | 0.00 | 0.00 | 99 | 1013.8 |
| 20260905123644 | 71 | 353 | 1.0 | 3.0 | 0.00 | 0.00 | 0.00 | 99 | 1013.6 |
| 20260905123142 | 71 | 39 | 3.0 | 4.0 | 0.00 | 0.00 | 0.00 | 99 | 1013.5 |
| 20260905122641 | 71 | 322 | 2.0 | 3.0 | 0.00 | 0.00 | 0.00 | 99 | 1013.5 |
| 20260905122136 | 71 | 344 | 2.0 | 3.0 | 0.00 | 0.00 | 0.00 | 99 | 1013.4 |
| 20260905121631 | 71 | 339 | 2.0 | 2.0 | 0.00 | 0.00 | 0.00 | 99 | 1013.2 |
| 20260905121126 | 71 | 8 | 3.0 | 6.0 | 0.00 | 0.00 | 0.00 | 99 | 1013.2 |
| 20260905120625 | 71 | 348 | 5.0 | 5.0 | 0.00 | 0.00 | 0.00 | 99 | 1013.2 |
| 20260905120120 | 71 | 332 | 2.0 | 3.0 | 0.00 | 0.00 | 0.00 | 99 | 1013.0 |
| 20260905115619 | 71 | 353 | 0.0 | 2.0 | 0.00 | 0.00 | 0.00 | 99 | 1013.0 |
| 20260905115114 | 71 | 1 | 3.0 | 3.0 | 0.00 | 0.00 | 0.00 | 99 | 1013.2 |
| 20260905114614 | 71 | 6 | 3.0 | 3.0 | 0.00 | 0.00 | 0.00 | 99 | 1012.7 |
| 20260905114113 | 71 | 28 | 2.0 | 3.0 | 0.00 | 0.00 | 0.00 | 99 | 1012.8 |
| 20260905113608 | 71 | 95 | 1.0 | 5.0 | 0.00 | 0.00 | 0.00 | 99 | 1012.7 |
| 20260905113103 | 71 | 320 | 2.0 | 3.0 | 0.00 | 0.00 | 0.00 | 99 | 1012.8 |
| 20260905112558 | 71 | 109 | 2.0 | 2.0 | 0.00 | 0.00 | 0.00 | 99 | 1012.6 |
| 20260905112054 | 71 | 299 | 2.0 | 2.0 | 0.00 | 0.00 | 0.00 | 99 | 1012.3 |
| 20260905111549 | 71 | 208 | 1.0 | 2.0 | 0.00 | 0.00 | 0.00 | 99 | 1012.5 |